[[{"header":{"parameterUnit":"m.s-1","parameterCategory":1,"la1":30.2991,"la2":30.254,"lo1":-89.0895,"lo2":-89.0444,"dy":0.0017,"dx":0.0017,"nx":28,"ny":28,"refTime":"2024-04-15T21:00:00:Z","depth":0,"parameterNumber":2,"parameterNumberName":"U-component_of_WINDS"},"data":[0,0,0,0,0,0,0,0,0,0,0,0,0,0,0,0,0,0,0,0,0,0,0,0,0,0,0,0,0,0,0,0,0,0,0,0,0,0,0,0,0,0,0,0,0,0,0,0,0,0,0,0,0,0,0,0,0,0,-3.4242,-3.4242,0,-3.4246,-3.4246,-3.4246,-3.4206,-3.4205,-3.4204,-3.4203,-3.4206,-3.4207,-3.4209,0,0,0,0,0,0,0,0,0,0,0,0,0,-3.42,-3.4201,-3.4242,-3.4242,-3.4242,-3.4246,-3.4246,-3.4246,-3.4206,-3.4205,-3.4204,-3.4203,-3.4206,-3.4207,-3.4209,0,0,0,0,0,0,0,0,0,0,0,0,0,-3.4212,-3.4201,-3.4242,-3.4223,-3.4221,-3.4246,-3.4246,-3.4246,-3.4207,-3.4205,-3.4203,-3.4202,-3.4206,-3.4207,-3.4209,-3.4252,0,0,-3.4214,-3.4215,0,0,0,0,0,0,0,0,-3.4212,-3.4214,-3.4226,-3.4224,-3.4222,-3.4224,-3.4232,-3.4248,-3.4207,-3.4212,-3.4203,-3.4201,-3.4213,-3.4214,-3.4219,-3.4252,-3.4252,-3.4214,-3.4215,-3.4216,-3.4216,0,0,0,0,0,0,0,-3.4211,-3.4213,-3.4243,-3.4226,-3.4224,-3.4214,-3.4214,-3.4235,-3.4222,-3.4212,-3.4209,-3.421,-3.4212,-3.4217,-3.4218,-3.4252,-3.4214,-3.4215,-3.4216,-3.4217,-3.4318,-3.432,0,0,0,0,0,0,-3.4213,-3.4213,-3.4243,-3.4243,-3.4213,-3.4216,-3.4216,-3.4225,-3.4222,-3.4219,-3.4211,-3.4208,-3.4215,-3.4217,-3.4218,-3.4266,-3.4216,-3.4217,-3.4218,-3.4317,-3.4319,-3.432,0,0,0,0,0,0,-3.4212,-3.4216,-3.4243,-3.4227,-3.423,-3.4218,-3.4229,-3.4226,-3.4231,-3.4221,-3.4219,-3.4218,-3.4214,-3.4216,-3.4243,-3.4266,-3.4218,-3.422,-3.4315,-3.4317,-3.432,-3.4363,0,0,0,0,0,0,-3.4211,-3.4216,-3.4232,-3.4228,-3.4231,-3.4268,-3.423,-3.4227,-3.4234,-3.4229,-3.4227,-3.4225,-3.4213,-3.4241,-3.4245,-3.4267,-3.4221,-3.4312,-3.4316,-3.4319,-3.436,-3.4367,-3.4373,0,0,0,0,0,-3.4209,-3.4245,-3.4233,-3.4237,-3.4251,-3.427,-3.4271,-3.4256,-3.4236,-3.4252,-3.4245,-3.4226,-3.4263,-3.4244,-3.4248,-3.4271,-3.4311,-3.4315,-3.4319,-3.4357,-3.4366,-3.4373,0,0,0,0,0,0,-3.4251,-3.4244,-3.4231,-3.4266,-3.4269,-3.4263,-3.4282,-3.4266,-3.4275,-3.427,-3.4251,-3.4251,-3.4281,-3.4279,-3.4258,-3.4312,-3.4283,-3.4288,-3.4311,-3.4319,-3.4326,-3.4325,-3.4222,0,0,0,0,0,-3.4265,-3.4281,-3.4273,-3.4305,-3.4307,-3.4295,-3.4302,-3.429,-3.4292,-3.4293,-3.4289,-3.4291,-3.4303,-3.4312,-3.4323,-3.436,-3.4358,-3.4378,-3.4385,-3.4391,-3.4394,-3.4412,-3.442,-3.4333,-3.4333,-3.4333,0,0,-3.4292,-3.429,-3.4301,-3.4313,-3.4314,-3.4329,-3.4296,-3.4314,-3.4325,-3.4296,-3.432,-3.4318,-3.4319,-3.4351,-3.4365,-3.435,-3.4418,-3.4396,-3.44,-3.44,-3.4417,-3.4425,-3.4432,-3.4336,-3.4335,-3.4335,0,0,-3.435,-3.4351,-3.4376,-3.4378,-3.4379,-3.4371,-3.4377,-3.4374,-3.437,-3.4395,-3.4372,-3.4386,-3.4408,-3.4409,-3.4413,-3.4471,-3.4452,-3.4476,-3.451,-3.4527,-3.4534,-3.454,-3.4558,-3.4566,-3.448,-3.448,-3.448,0,-3.4384,-3.4407,-3.4391,-3.4411,-3.4416,-3.439,-3.4415,-3.4417,-3.4422,-3.4426,-3.441,-3.4436,-3.4436,-3.4466,-3.448,-3.4485,-3.449,-3.4474,-3.4535,-3.454,-3.4546,-3.4563,-3.457,-3.4482,-3.4482,-3.4482,-3.4482,0,-3.4447,-3.4464,-3.4484,-3.4489,-3.4497,-3.4519,-3.4506,-3.4516,-3.4503,-3.4497,-3.4521,-3.452,-3.4529,-3.4536,-3.4525,-3.4565,-3.4556,-3.4538,-3.4509,-3.4557,-3.4572,-3.4579,-3.4486,-3.4485,-3.4484,-3.4484,0,0,-3.453,-3.4526,-3.4533,-3.4534,-3.4534,-3.4546,-3.4567,-3.4576,-3.4584,-3.4589,-3.4604,-3.4624,-3.4607,-3.4611,-3.4599,-3.4615,-3.4658,-3.4595,-3.4594,-3.4604,-3.4701,-3.4712,-3.472,-3.4647,-3.4649,-3.465,-3.47,0,-3.4584,-3.4619,-3.4605,-3.4641,-3.4654,-3.463,-3.4648,-3.465,-3.4644,-3.4655,-3.4649,-3.4662,-3.464,-3.4642,-3.4657,-3.465,-3.4677,-3.4647,-3.466,-3.4661,-3.4658,-3.4729,-3.4741,-3.4789,-3.4706,-3.4707,-3.4708,0,-3.4652,-3.4658,-3.4695,-3.4691,-3.4696,-3.4712,-3.4719,-3.473,-3.4731,-3.4726,-3.473,-3.4715,-3.4735,-3.4708,-3.4733,-3.4713,-3.4718,-3.4716,-3.4717,-3.4716,-3.4685,-3.4727,-3.4804,-3.481,-3.4718,-3.4717,-3.4716,0,-3.4705,-3.4723,-3.4747,-3.4749,-3.4746,-3.4757,-3.4757,-3.4756,-3.4762,-3.4768,-3.4771,-3.478,-3.4784,-3.4791,-3.4778,-3.476,-3.4805,-3.4777,-3.4799,-3.48,-3.4808,-3.4807,-3.4884,-3.4816,-3.4816,-3.4816,-3.4815,0,-3.4765,-3.4788,-3.477,-3.4785,-3.4809,-3.4794,-3.4818,-3.4815,-3.4815,-3.4827,-3.4808,-3.4821,-3.4804,-3.4815,-3.4806,-3.4827,-3.483,-3.4825,-3.4822,-3.4826,-3.4826,-3.4827,-3.4822,-3.4817,-3.4817,-3.4817,-3.4816,0,-3.4827,-3.4817,-3.4841,-3.4836,-3.4835,-3.4853,-3.4848,-3.4861,-3.4855,-3.4871,-3.4874,-3.4864,-3.4875,-3.4864,-3.4875,-3.4869,-3.4897,-3.489,-3.4896,-3.4893,-3.4915,-3.4912,-3.4993,-3.5002,-3.4931,-3.4931,-3.4932,0,-3.4865,-3.4882,-3.4878,-3.4885,-3.4885,-3.4897,-3.4903,-3.4889,-3.4895,-3.4897,-3.4909,-3.4919,-3.4926,-3.4946,-3.4939,-3.4947,-3.4939,-3.4967,-3.494,-3.4942,-3.4936,-3.4934,-3.4935,-3.4971,-3.4972,-3.4973,-3.4974,0,-3.4932,-3.4926,-3.4935,-3.4942,-3.4949,-3.4954,-3.4957,-3.4964,-3.4949,-3.4957,-3.4969,-3.4974,-3.4985,-3.4995,-3.5001,-3.5,-3.4984,-3.4983,-3.4988,-3.499,-3.4991,-3.4988,-3.4908,-3.498,-3.4979,-3.4979,-3.4979,-3.4978,-3.4981,-3.4994,-3.4993,-3.5003,-3.5005,-3.5008,-3.5019,-3.5014,-3.5023,-3.503,-3.5022,-3.5035,-3.5035,-3.5042,-3.5042,-3.5052,-3.5041,-3.5049,-3.505,-3.5052,-3.5054,-3.4992,-3.5054,-3.5054,-3.5054,-3.5053,-3.5053,0,-3.5045,-3.5043,-3.5053,-3.5058,-3.5065,-3.5051,-3.5053,-3.506,-3.5072,-3.5074,-3.5081,-3.5093,-3.5103,-3.5097,-3.5105,-3.5114,-3.5106,-3.5116,-3.5114,-3.5113,-3.5065,-3.5059,-3.5121,-3.5121,-3.5121,-3.5121,-3.5121,-3.5121,-3.5079,-3.5099,-3.5093,-3.5114,-3.5112,-3.5124,-3.5127,-3.513,-3.513,-3.5145,-3.5152,-3.5149,-3.5147,-3.5154,-3.5161,-3.516,-3.5162,-3.5174,-3.5169,-3.5124,-3.5117,-3.511,-3.5104,-3.5175,-3.5175,-3.5216,-3.5216,-3.5216]},{"header":{"parameterUnit":"m.s-1","parameterCategory":1,"la1":30.2991,"la2":30.254,"lo1":-89.0895,"lo2":-89.0444,"dy":0.0017,"dx":0.0017,"nx":28,"ny":28,"refTime":"2024-04-15T21:00:00:Z","depth":0,"parameterNumber":3,"parameterNumberName":"V-component_of_WINDS"},"data":[0,0,0,0,0,0,0,0,0,0,0,0,0,0,0,0,0,0,0,0,0,0,0,0,0,0,0,0,0,0,0,0,0,0,0,0,0,0,0,0,0,0,0,0,0,0,0,0,0,0,0,0,0,0,0,0,0,0,2.8378,2.8378,0,2.8396,2.8397,2.8397,2.8366,2.8365,2.8364,2.8363,2.8382,2.8384,2.8385,0,0,0,0,0,0,0,0,0,0,0,0,0,2.8318,2.8319,2.8378,2.8378,2.8378,2.8396,2.8397,2.8397,2.8366,2.8365,2.8364,2.8363,2.8382,2.8383,2.8385,0,0,0,0,0,0,0,0,0,0,0,0,0,2.8341,2.832,2.8378,2.8365,2.8364,2.8396,2.8397,2.8397,2.8367,2.8365,2.8363,2.8362,2.8381,2.8383,2.8385,2.8431,0,0,2.8392,2.8393,0,0,0,0,0,0,0,0,2.834,2.8343,2.8367,2.8366,2.8365,2.8377,2.8382,2.8408,2.8367,2.8366,2.8363,2.8361,2.8382,2.8384,2.8391,2.8431,2.8432,2.8392,2.8394,2.8395,2.8395,0,0,0,0,0,0,0,2.8338,2.8342,2.8385,2.8367,2.8366,2.8359,2.8361,2.8387,2.8382,2.8366,2.8364,2.8366,2.8381,2.8389,2.8391,2.8433,2.8392,2.8394,2.8396,2.8397,2.8513,2.8515,0,0,0,0,0,0,2.8338,2.8341,2.8385,2.8386,2.8348,2.8362,2.8363,2.8375,2.8382,2.8382,2.8367,2.8365,2.8386,2.8388,2.8392,2.8446,2.8395,2.8397,2.8398,2.8512,2.8514,2.8516,0,0,0,0,0,0,2.8337,2.8342,2.8384,2.8363,2.8368,2.8364,2.8378,2.8376,2.8384,2.8383,2.8382,2.8376,2.8385,2.8388,2.8422,2.8447,2.8398,2.84,2.851,2.8512,2.8515,2.8556,0,0,0,0,0,0,2.8335,2.8342,2.8359,2.8363,2.8369,2.8413,2.8379,2.8378,2.8388,2.8384,2.8391,2.8391,2.8384,2.8418,2.8424,2.8449,2.8402,2.8507,2.8511,2.8514,2.8552,2.8559,2.8566,0,0,0,0,0,2.8333,2.8369,2.8359,2.8365,2.839,2.8415,2.8418,2.8409,2.839,2.8407,2.8407,2.8391,2.8443,2.8422,2.8428,2.8454,2.8506,2.851,2.8514,2.8549,2.8558,2.8565,0,0,0,0,0,0,2.8367,2.8369,2.8359,2.8397,2.8406,2.8409,2.8431,2.8418,2.8433,2.8429,2.8417,2.8419,2.8455,2.8457,2.8434,2.8499,2.8471,2.8477,2.8496,2.8505,2.8511,2.851,2.8403,0,0,0,0,0,2.8378,2.8398,2.84,2.8433,2.8438,2.8434,2.8444,2.8437,2.8446,2.8449,2.8451,2.8461,2.8479,2.8492,2.8509,2.8552,2.8554,2.8573,2.858,2.8585,2.859,2.8615,2.8624,2.8529,2.8529,2.8529,0,0,2.8403,2.8407,2.842,2.844,2.8446,2.8468,2.8437,2.8461,2.8477,2.8453,2.8485,2.8487,2.8496,2.8535,2.8553,2.8539,2.8617,2.859,2.8595,2.8597,2.862,2.863,2.8638,2.8531,2.8531,2.8531,0,0,2.8459,2.8464,2.8493,2.85,2.851,2.8507,2.8514,2.852,2.8521,2.8552,2.8535,2.8554,2.8586,2.8595,2.8603,2.8664,2.8651,2.867,2.8706,2.873,2.8738,2.8745,2.8768,2.8777,2.8675,2.8675,2.8675,0,2.8489,2.852,2.851,2.8536,2.8546,2.8525,2.8555,2.8563,2.8577,2.8585,2.8569,2.861,2.8615,2.8657,2.8672,2.8679,2.8688,2.867,2.8738,2.8744,2.875,2.8773,2.8781,2.8678,2.8677,2.8677,2.8677,0,2.8557,2.858,2.8602,2.8618,2.863,2.8658,2.8653,2.8667,2.8658,2.8658,2.8691,2.8697,2.8715,2.8724,2.8716,2.8765,2.8757,2.8739,2.8711,2.8762,2.8783,2.8791,2.8681,2.868,2.8679,2.8679,0,0,2.8635,2.8645,2.8654,2.8661,2.8671,2.8689,2.8716,2.8735,2.8748,2.8759,2.8783,2.8811,2.8796,2.8805,2.8798,2.8819,2.887,2.88,2.88,2.8814,2.8927,2.8941,2.8951,2.8861,2.8862,2.8863,2.8926,0,2.8692,2.874,2.8732,2.8778,2.88,2.8781,2.8805,2.8815,2.8815,2.8834,2.8834,2.8855,2.8832,2.8838,2.8858,2.8859,2.8893,2.8855,2.8884,2.8885,2.8883,2.8961,2.8976,2.9035,2.8934,2.8936,2.8937,0,2.8765,2.878,2.8829,2.8837,2.8846,2.8868,2.8885,2.8903,2.8913,2.8912,2.8924,2.8913,2.8942,2.8913,2.8953,2.8927,2.8939,2.8941,2.8943,2.8947,2.8915,2.8968,2.9053,2.9063,2.8949,2.8948,2.8947,0,2.8819,2.8851,2.8885,2.8892,2.8902,2.8918,2.8923,2.8932,2.8944,2.8959,2.8968,2.8986,2.8996,2.9011,2.9006,2.8985,2.9048,2.9018,2.9049,2.9049,2.9063,2.9063,2.9153,2.9069,2.9068,2.9068,2.9068,0,2.8885,2.8916,2.891,2.8931,2.8965,2.8956,2.8991,2.8994,2.9002,2.9024,2.9009,2.903,2.9021,2.9042,2.9038,2.9073,2.9077,2.9078,2.9077,2.908,2.908,2.9088,2.9085,2.9071,2.907,2.907,2.9069,0,2.8951,2.8948,2.8984,2.8991,2.8993,2.9019,2.9025,2.9045,2.9045,2.9073,2.9079,2.9078,2.9102,2.9098,2.9124,2.9121,2.9166,2.9159,2.9162,2.9161,2.9193,2.9191,2.9293,2.9307,2.9212,2.9212,2.9213,0,2.8994,2.9018,2.9027,2.9041,2.9048,2.9069,2.9082,2.9075,2.9089,2.9103,2.9122,2.9145,2.9162,2.9201,2.9204,2.9224,2.9218,2.9253,2.9221,2.9225,2.9221,2.922,2.9223,2.9259,2.926,2.9261,2.9262,0,2.9071,2.9069,2.9088,2.9107,2.9123,2.9137,2.915,2.9162,2.9156,2.9173,2.9197,2.9211,2.9238,2.9261,2.9281,2.9286,2.9274,2.9272,2.928,2.9285,2.9287,2.9288,2.9181,2.927,2.9269,2.9268,2.9268,2.9268,2.9128,2.9149,2.916,2.9182,2.9191,2.9204,2.9224,2.9226,2.9246,2.9268,2.9262,2.9291,2.9302,2.9327,2.9335,2.9357,2.9345,2.9356,2.936,2.9363,2.9368,2.9282,2.936,2.936,2.936,2.936,2.936,0,2.9206,2.9212,2.9233,2.9252,2.927,2.9256,2.927,2.9286,2.9311,2.9323,2.9341,2.937,2.9393,2.9397,2.9419,2.9436,2.9431,2.9442,2.9442,2.9444,2.9377,2.9368,2.9446,2.9446,2.9446,2.9446,2.9446,2.9446,2.9249,2.9284,2.9283,2.9324,2.9329,2.9357,2.9367,2.9379,2.9388,2.9422,2.9441,2.9443,2.9452,2.9475,2.9496,2.9496,2.9506,2.952,2.9519,2.9457,2.9448,2.944,2.9432,2.9521,2.9522,2.9583,2.9584,2.9584]}]]